KK4OHF Weather Reports


time (UTC)temp
F
wind
direction
speed
knots
gust
knots
rain 1hr
in
rain 24hr
in
rain mn
in
humidity
%
barometer
mb
20260904220005 93 122 0.0 2.6 0.00 0.00 0.00 54 1014.1
20260904215506 93 108 0.9 2.6 0.00 0.00 0.00 54 1014.1
20260904215005 93 112 0.9 2.6 0.00 0.00 0.00 54 1014.1
20260904214506 93 29 0.0 0.9 0.00 0.00 0.00 53 1014.1
20260904214005 93 29 0.0 1.7 0.00 0.00 0.00 53 1014.1
20260904213506 93 29 0.0 1.7 0.00 0.00 0.00 53 1014.1
20260904213006 93 44 0.9 1.7 0.00 0.00 0.00 52 1014.1
20260904212505 93 36 0.9 2.6 0.00 0.00 0.00 52 1014.1
20260904212004 93 29 0.9 2.6 0.00 0.00 0.00 54 1014.2
20260904211505 93 5 0.0 1.7 0.00 0.00 0.00 53 1014.2
20260904210505 94 33 1.7 2.6 0.00 0.00 0.00 52 1014.2
20260904205505 94 64 0.0 1.7 0.00 0.00 0.00 52 1014.2
20260904205005 94 103 1.7 2.6 0.00 0.00 0.00 53 1014.2
20260904204505 94 11 1.7 4.3 0.00 0.00 0.00 52 1014.5
20260904204005 94 12 0.9 2.6 0.00 0.00 0.00 53 1014.5
20260904203005 94 57 0.9 6.1 0.00 0.00 0.00 53 1014.6
20260904202504 94 291 0.9 6.1 0.00 0.00 0.00 52 1014.6
20260904201505 95 180 1.7 7.0 0.00 0.00 0.00 52 1014.9
20260904201006 94 351 0.9 2.6 0.00 0.00 0.00 52 1014.9
20260904200505 94 13 1.7 4.3 0.00 0.00 0.00 52 1014.9
20260904200005 95 9 0.9 2.6 0.00 0.00 0.00 52 1015.1
20260904195504 95 162 1.7 4.3 0.00 0.00 0.00 53 1015.1
20260904195006 94 123 0.9 2.6 0.00 0.00 0.00 56 1015.1
20260904194505 94 15 1.7 4.3 0.00 0.00 0.00 55 1015.1
20260904194005 94 229 0.9 4.3 0.00 0.00 0.00 55 1015.2
20260904193506 94 114 0.9 4.3 0.00 0.00 0.00 55 1015.2
20260904192504 93 15 0.9 1.7 0.00 0.00 0.00 55 1015.4
20260904192005 95 62 0.9 2.6 0.00 0.00 0.00 56 1015.6
20260904191006 94 100 0.9 2.6 0.00 0.00 0.00 55 1015.8
20260904190505 94 145 2.6 6.1 0.00 0.00 0.00 53 1015.8
20260904190005 94 108 2.6 4.3 0.00 0.00 0.00 55 1016.0
20260904185504 94 22 0.9 2.6 0.00 0.00 0.00 58 1016.0
20260904185005 93 11 1.7 5.2 0.00 0.00 0.00 54 1016.0
20260904184505 93 31 0.9 2.6 0.00 0.00 0.00 56 1016.2
20260904182505 93 224 0.9 2.6 0.00 0.00 0.00 57 1016.6
20260904181505 93 79 1.7 5.2 0.00 0.00 0.00 58 1016.6
20260904181005 92 13 1.7 2.6 0.00 0.00 0.00 60 1016.8
20260904180505 92 30 0.9 2.6 0.00 0.00 0.00 61 1016.8
20260904180005 92 11 2.6 6.1 0.00 0.00 0.00 57 1016.9
20260904175504 92 93 0.9 1.7 0.00 0.00 0.00 62 1016.9
20260904175005 90 347 1.7 2.6 0.00 0.00 0.00 62 1016.9
20260904174506 90 355 0.0 1.7 0.00 0.00 0.00 63 1016.9
20260904174005 90 357 0.9 2.6 0.00 0.00 0.00 62 1016.9
20260904173506 91 5 1.7 2.6 0.00 0.00 0.00 62 1016.9
20260904173006 91 1 0.9 2.6 0.00 0.00 0.00 62 1017.2
20260904172505 91 17 1.7 2.6 0.00 0.00 0.00 63 1017.2
20260904171506 92 101 0.9 2.6 0.00 0.00 0.00 62 1017.2
20260904171005 92 151 0.9 4.3 0.00 0.00 0.00 57 1017.4
20260904170004 92 94 1.7 6.1 0.00 0.00 0.00 60 1017.4
20260904165004 92 183 0.9 1.7 0.00 0.00 0.00 61 1017.4
20260904164505 91 167 0.9 2.6 0.00 0.00 0.00 62 1017.4
20260904164004 91 305 0.9 2.6 0.00 0.00 0.00 64 1017.6
20260904163505 91 70 0.9 2.6 0.00 0.00 0.00 64 1017.6
20260904161504 90 16 1.7 4.3 0.00 0.00 0.00 64 1017.9
20260904161006 89 355 0.9 2.6 0.00 0.00 0.00 64 1017.9
20260904160005 88 106 1.7 5.2 0.00 0.00 0.00 67 1017.9
20260904155505 88 11 1.7 5.2 0.00 0.00 0.00 65 1017.9
20260904155004 88 20 1.7 5.2 0.00 0.00 0.00 66 1017.9
20260904154005 89 117 0.9 2.6 0.00 0.00 0.00 68 1017.9
20260904153505 89 80 0.9 4.3 0.00 0.00 0.00 69 1017.9
20260904153005 88 49 0.9 1.7 0.00 0.00 0.00 68 1017.8
20260904152505 87 20 0.0 0.9 0.00 0.00 0.00 67 1017.8
20260904152004 86 20 0.0 1.7 0.00 0.00 0.00 70 1017.8
20260904151505 86 0 0.9 2.6 0.00 0.00 0.00 68 1017.9
20260904151006 87 17 0.9 1.7 0.00 0.00 0.00 70 1017.9
20260904150505 87 150 0.9 1.7 0.00 0.00 0.00 69 1017.9
20260904150005 87 150 0.0 0.9 0.00 0.00 0.00 70 1017.7
20260904145005 87 150 0.0 0.9 0.00 0.00 0.00 71 1017.7
20260904144504 86 150 0.0 1.7 0.00 0.00 0.00 70 1017.7
20260904144005 86 150 0.0 1.7 0.00 0.00 0.00 74 1017.6
20260904143505 85 284 0.0 0.9 0.00 0.00 0.00 75 1017.6
20260904143005 84 73 0.0 0.9 0.00 0.00 0.00 76 1017.5
20260904142005 83 9 0.9 2.6 0.00 0.00 0.00 78 1017.4
20260904141505 83 124 0.9 0.9 0.00 0.00 0.00 78 1017.4
20260904141005 84 124 0.9 1.7 0.00 0.00 0.00 78 1017.4
20260904140006 82 124 0.0 0.9 0.00 0.00 0.00 82 1017.4
20260904135506 81 124 0.9 1.7 0.00 0.00 0.00 82 1017.4
20260904135006 81 124 0.9 1.7 0.00 0.00 0.00 84 1017.4
20260904134505 79 124 0.9 1.7 0.00 0.00 0.00 87 1017.4
20260904134006 78 124 0.9 2.6 0.00 0.00 0.00 89 1017.4
20260904133506 76 49 0.0 0.9 0.00 0.00 0.00 89 1017.4
20260904133005 76 49 0.0 0.9 0.00 0.00 0.00 89 1017.3
20260904132505 76 49 0.0 0.9 0.00 0.00 0.00 89 1017.3
20260904131505 75 49 0.9 1.7 0.00 0.00 0.00 89 1017.3
20260904131005 75 49 0.0 1.7 0.00 0.00 0.00 89 1017.4
20260904130506 75 49 0.0 0.9 0.00 0.00 0.00 89 1017.4
20260904130005 74 49 0.0 0.0 0.00 0.00 0.00 89 1017.3
20260904125505 74 49 0.0 0.0 0.00 0.00 0.00 89 1017.3
20260904125005 74 49 0.0 0.0 0.00 0.00 0.00 89 1017.3
20260904124505 73 49 0.0 0.0 0.00 0.00 0.00 89 1017.3
20260904124005 73 49 0.0 0.0 0.00 0.00 0.00 89 1017.2
20260904123504 73 49 0.0 0.0 0.00 0.00 0.00 89 1017.2
20260904122505 72 49 0.0 0.0 0.00 0.00 0.00 90 1017.2
20260904122005 72 49 0.0 0.0 0.00 0.00 0.00 90 1017.1
20260904121505 72 49 0.0 0.0 0.00 0.00 0.00 90 1017.1
20260904120505 72 49 0.0 0.0 0.00 0.00 0.00 89 1016.9
20260904120004 71 49 0.0 0.0 0.00 0.00 0.00 90 1016.9
20260904115004 71 49 0.0 0.0 0.00 0.00 0.00 90 1016.9
20260904114004 71 49 0.0 0.0 0.00 0.00 0.00 90 1016.8
20260904113505 71 49 0.0 0.0 0.00 0.00 0.00 90 1016.8
20260904113005 72 49 0.0 0.0 0.00 0.00 0.00 90 1016.4
20260904112505 72 49 0.0 0.0 0.00 0.00 0.00 90 1016.4
20260904112005 72 49 0.0 0.0 0.00 0.00 0.00 90 1016.4
20260904111505 72 49 0.0 0.0 0.00 0.00 0.00 89 1016.4
20260904111005 72 49 0.0 0.0 0.00 0.00 0.00 90 1016.4
20260904110505 72 49 0.0 0.0 0.00 0.00 0.00 89 1016.4
20260904110006 72 49 0.0 0.0 0.00 0.00 0.00 90 1016.3
20260904105505 72 49 0.0 0.0 0.00 0.00 0.00 90 1016.3
20260904105005 72 49 0.0 0.0 0.00 0.00 0.00 90 1016.3
20260904104005 72 49 0.0 0.0 0.00 0.00 0.00 90 1016.3
20260904103505 72 49 0.0 0.0 0.00 0.00 0.00 90 1016.3
20260904102505 72 49 0.0 0.0 0.00 0.00 0.00 89 1016.3
20260904102005 72 49 0.0 0.0 0.00 0.00 0.00 89 1016.3
20260904101506 72 49 0.0 0.0 0.00 0.00 0.00 89 1016.3
20260904101005 72 49 0.0 0.0 0.00 0.00 0.00 89 1016.3
20260904100505 72 49 0.0 0.0 0.00 0.00 0.00 89 1016.3
20260904100004 73 49 0.0 0.0 0.00 0.00 0.00 89 1016.3
20260904095504 73 49 0.0 0.0 0.00 0.00 0.00 89 1016.3
20260904095005 73 49 0.0 0.0 0.00 0.00 0.00 90 1016.3
20260904094504 73 49 0.0 0.0 0.00 0.00 0.00 90 1016.2
20260904094005 73 49 0.0 0.0 0.00 0.00 0.00 90 1016.1
20260904093006 73 49 0.0 0.0 0.00 0.00 0.00 89 1016.1
20260904092505 73 49 0.0 0.0 0.00 0.00 0.00 89 1016.1
20260904092004 73 49 0.0 0.0 0.00 0.00 0.00 89 1016.1
20260904091505 73 49 0.0 0.0 0.00 0.00 0.00 89 1016.1
20260904090506 73 49 0.0 0.0 0.00 0.00 0.00 89 1016.1
20260904085505 73 49 0.0 0.0 0.00 0.00 0.00 89 1016.1
20260904085006 73 49 0.0 0.0 0.00 0.00 0.00 89 1016.1
20260904084505 73 49 0.0 0.0 0.00 0.00 0.00 89 1016.1
20260904084005 74 49 0.0 0.0 0.00 0.00 0.00 89 1016.1
20260904083506 74 49 0.0 0.0 0.00 0.00 0.00 89 1016.1
20260904083006 74 49 0.0 0.0 0.00 0.00 0.00 89 1016.1
20260904082505 74 49 0.0 0.0 0.00 0.00 0.00 89 1016.1
20260904082005 74 49 0.0 0.0 0.00 0.00 0.00 89 1015.9
20260904081504 74 49 0.0 0.0 0.00 0.00 0.00 89 1015.9
20260904081006 74 49 0.0 0.0 0.00 0.00 0.00 89 1015.9
20260904080505 74 49 0.0 0.0 0.00 0.00 0.00 89 1015.9
20260904080004 74 49 0.0 0.0 0.00 0.00 0.00 89 1015.9
20260904075505 74 49 0.0 0.0 0.00 0.00 0.00 89 1015.9
20260904075005 74 49 0.0 0.0 0.00 0.00 0.00 89 1015.9
20260904074504 74 49 0.0 0.0 0.00 0.00 0.00 89 1016.0
20260904074005 74 49 0.0 0.0 0.00 0.00 0.00 89 1015.9
20260904073505 74 49 0.0 0.0 0.00 0.00 0.00 89 1015.9
20260904073005 74 49 0.0 0.0 0.00 0.00 0.00 89 1015.8
20260904072505 74 49 0.0 0.0 0.00 0.00 0.00 89 1015.8
20260904072005 75 49 0.0 0.0 0.00 0.00 0.00 89 1015.8
20260904071505 75 49 0.0 0.0 0.00 0.00 0.00 89 1015.9
20260904071005 75 49 0.0 0.0 0.00 0.00 0.00 89 1015.9
20260904070505 75 49 0.0 0.0 0.00 0.00 0.00 89 1015.9
20260904070005 75 49 0.0 0.0 0.00 0.00 0.00 89 1016.0
20260904065506 75 49 0.0 0.0 0.00 0.00 0.00 89 1016.0
20260904064005 75 49 0.0 0.0 0.00 0.00 0.00 88 1016.3
20260904063505 75 49 0.0 0.0 0.00 0.00 0.00 88 1016.3
20260904062505 75 49 0.0 0.0 0.00 0.00 0.00 88 1016.3
20260904062006 75 49 0.0 0.0 0.00 0.00 0.00 88 1016.3
20260904061505 76 49 0.0 0.0 0.00 0.00 0.00 88 1016.3
20260904061005 76 49 0.0 0.0 0.00 0.00 0.00 88 1016.3
20260904060506 76 49 0.0 0.0 0.00 0.00 0.00 88 1016.3
20260904055504 76 49 0.0 0.0 0.00 0.00 0.00 88 1016.3
20260904055005 76 49 0.0 0.0 0.00 0.00 0.00 88 1016.3
20260904054505 76 49 0.0 0.0 0.00 0.00 0.00 87 1016.3
20260904054005 76 49 0.0 0.0 0.00 0.00 0.00 87 1016.3
20260904053504 76 49 0.0 0.0 0.00 0.00 0.00 87 1016.3
20260904053004 76 49 0.0 0.0 0.00 0.00 0.00 87 1016.3
20260904052504 76 49 0.0 0.0 0.00 0.00 0.00 87 1016.3
20260904052006 76 49 0.0 0.0 0.00 0.00 0.00 87 1016.3
20260904051505 77 49 0.0 0.0 0.00 0.00 0.00 86 1016.3
20260904051005 77 49 0.0 0.0 0.00 0.00 0.00 86 1016.3
20260904050504 77 49 0.0 0.0 0.00 0.00 0.00 86 1016.3
20260904050005 77 49 0.0 0.0 0.00 0.00 0.00 86 1016.3
20260904045505 77 49 0.0 0.0 0.00 0.00 0.00 86 1016.3
20260904045005 77 49 0.0 0.0 0.00 0.00 0.00 86 1016.4
20260904044505 77 49 0.0 0.0 0.00 0.00 0.00 86 1016.4
20260904044005 78 49 0.0 0.0 0.00 0.00 0.00 86 1016.4
20260904043506 78 49 0.0 0.0 0.00 0.00 0.00 85 1016.4
20260904043005 78 49 0.0 0.0 0.00 0.00 0.00 85 1016.4
20260904042505 78 49 0.0 0.0 0.00 0.00 0.00 85 1016.4
20260904042006 78 49 0.0 0.0 0.00 0.00 0.00 85 1016.3
20260904041505 78 49 0.0 0.0 0.00 0.00 0.00 85 1016.3
20260904041005 78 49 0.0 0.0 0.00 0.00 0.00 84 1016.3
20260904040505 78 49 0.0 0.0 0.00 0.00 0.00 84 1016.3
20260904040006 79 49 0.0 0.0 0.00 0.00 0.00 84 1016.5
20260904035505 79 49 0.0 0.0 0.00 0.00 0.00 84 1016.5
20260904035006 79 49 0.0 0.9 0.00 0.00 0.00 83 1016.5
20260904034505 79 49 0.0 0.0 0.00 0.00 0.00 83 1016.5
20260904034006 79 49 0.0 0.0 0.00 0.00 0.00 83 1016.5
20260904033504 79 49 0.0 0.0 0.00 0.00 0.00 83 1016.5
20260904033006 80 49 0.0 0.0 0.00 0.00 0.00 82 1016.4
20260904032005 80 49 0.0 0.0 0.00 0.00 0.00 81 1016.4
20260904031505 80 49 0.0 0.0 0.00 0.00 0.00 81 1016.4
20260904031005 80 49 0.0 0.0 0.00 0.00 0.00 81 1016.4
20260904030504 80 49 0.0 0.0 0.00 0.00 0.00 80 1016.4
20260904025505 81 49 0.0 0.0 0.00 0.00 0.00 80 1016.4
20260904025005 81 49 0.0 0.0 0.00 0.00 0.00 79 1016.5
20260904024505 81 49 0.0 0.0 0.00 0.00 0.00 79 1016.6
20260904024006 81 49 0.0 0.0 0.00 0.00 0.00 79 1016.4
20260904023505 82 49 0.0 0.0 0.00 0.00 0.00 78 1016.4
20260904023005 82 49 0.0 0.0 0.00 0.00 0.00 78 1016.3
20260904022504 82 49 0.0 0.0 0.00 0.00 0.00 77 1016.3
20260904022005 82 49 0.0 0.0 0.00 0.00 0.00 77 1016.3
20260904021506 82 49 0.0 0.0 0.00 0.00 0.00 76 1016.3
20260904021005 83 49 0.0 0.0 0.00 0.00 0.00 76 1016.2
20260904020505 83 49 0.0 0.0 0.00 0.00 0.00 76 1016.2
20260904020005 83 49 0.0 0.0 0.00 0.00 0.00 75 1015.8
20260904015505 83 49 0.0 0.0 0.00 0.00 0.00 75 1015.8
20260904015005 83 49 0.0 0.0 0.00 0.00 0.00 74 1015.8
20260904014505 83 49 0.0 0.0 0.00 0.00 0.00 73 1015.8
20260904014005 83 49 0.0 0.0 0.00 0.00 0.00 72 1015.8
20260904013505 83 49 0.0 0.0 0.00 0.00 0.00 72 1015.8
20260904013005 83 49 0.0 0.0 0.00 0.00 0.00 71 1015.8
20260904012505 84 49 0.0 0.9 0.00 0.00 0.00 71 1015.8
20260904012005 84 49 0.0 0.9 0.00 0.00 0.00 71 1015.8
20260904011505 84 12 0.0 1.7 0.00 0.00 0.00 71 1015.8
20260904011006 84 12 0.9 2.6 0.00 0.00 0.00 71 1015.8
20260904010505 85 0 0.9 1.7 0.00 0.00 0.00 71 1015.8
20260904010005 85 0 0.9 2.6 0.00 0.00 0.00 70 1015.8
20260904005505 85 336 0.9 1.7 0.00 0.00 0.00 70 1015.8
20260904005005 86 5 0.0 0.0 0.00 0.00 0.00 70 1015.8
20260904004505 86 11 0.0 0.9 0.00 0.00 0.00 70 1015.8
20260904004006 86 15 0.0 1.7 0.00 0.00 0.00 70 1015.7
20260904003505 87 122 0.9 1.7 0.00 0.00 0.00 70 1015.7
20260904003004 87 122 0.9 2.6 0.00 0.00 0.00 69 1015.3
20260904002506 87 351 0.0 0.9 0.00 0.00 0.00 69 1015.3
20260904002005 88 351 0.9 1.7 0.00 0.00 0.00 69 1015.3
20260904001006 89 126 0.9 1.7 0.00 0.00 0.00 69 1015.2
20260904000506 89 126 0.0 0.9 0.00 0.00 0.00 66 1015.2
20260904000006 89 126 0.0 0.0 0.00 0.00 0.00 65 1015.2
20260903235505 89 126 0.0 0.9 0.00 0.00 0.00 63 1015.2
20260903235005 90 126 0.0 0.9 0.00 0.00 0.00 64 1015.2
20260903234505 90 126 0.0 0.0 0.00 0.00 0.00 64 1015.1
20260903234006 90 126 0.0 0.9 0.00 0.00 0.00 63 1014.9
20260903233505 90 126 0.0 0.9 0.00 0.00 0.00 63 1014.9
20260903233005 91 126 0.0 0.9 0.00 0.00 0.00 61 1014.8
20260903232504 91 126 0.0 0.9 0.00 0.00 0.00 60 1014.8
20260903232005 91 126 0.0 2.6 0.00 0.00 0.00 60 1014.8
20260903231505 91 16 0.9 1.7 0.00 0.00 0.00 59 1014.7
20260903230504 92 16 0.0 0.9 0.00 0.00 0.00 59 1014.7
20260903230005 92 16 0.0 0.9 0.00 0.00 0.00 59 1014.7
20260903225505 92 16 0.0 0.9 0.00 0.00 0.00 57 1014.7
20260903225005 92 16 0.9 2.6 0.00 0.00 0.00 56 1014.7
20260903224506 93 9 1.7 4.3 0.00 0.00 0.00 55 1014.7
20260903223505 93 16 1.7 6.1 0.00 0.00 0.00 55 1014.6
20260903223005 94 13 0.9 2.6 0.00 0.00 0.00 54 1014.6
20260903222504 94 13 0.0 0.9 0.00 0.00 0.00 54 1014.6
20260903221505 94 13 0.9 1.7 0.00 0.00 0.00 54 1014.6
20260903221006 94 13 0.9 2.6 0.00 0.00 0.00 52 1014.6
20260903220506 94 13 0.9 2.6 0.00 0.00 0.00 52 1014.6